• In Germany
  • List of Countries
  • For 7 days
  • Water Temperature
  • Satellite Maps
  • Weather Map
  • Weather Widgets
  • user-avatar
    Login

    Hourly Weather Annaba

    Today, 23 September, Saturday

    Time Temperature Precipitation Wind Pressure Humidity
    00:00 +26°C° 0 mm 2 mps 762 mmHg 70%
    01:00 +25°C° 0 mm 2 mps 762 mmHg 73%
    02:00 +25°C° 0 mm 2 mps 761 mmHg 70%
    03:00 +25°C° 0 mm 2 mps 761 mmHg 66%
    04:00 +26°C° 0 mm 2 mps 761 mmHg 63%
    05:00 +26°C° 0 mm 2 mps 761 mmHg 62%
    06:00 +26°C° 0 mm 1 mps 761 mmHg 60%
    07:00 +27°C° 0 mm 2 mps 762 mmHg 58%
    08:00 +28°C° 0 mm 2 mps 762 mmHg 56%
    09:00 +28°C° 0 mm 2 mps 762 mmHg 54%
    10:00 +29°C° 0 mm 2 mps 762 mmHg 51%
    11:00 +30°C° 0 mm 2 mps 762 mmHg 48%
    12:00 +31°C° 0 mm 2 mps 762 mmHg 44%
    13:00 +33°C° 0 mm 1 mps 762 mmHg 38%
    14:00 +33°C° 0 mm 1 mps 761 mmHg 37%
    15:00 +34°C° 0 mm 2 mps 761 mmHg 36%
    16:00 +34°C° 0 mm 2 mps 761 mmHg 35%
    17:00 +32°C° 0 mm 2 mps 761 mmHg 40%
    18:00 +30°C° 0 mm 3 mps 761 mmHg 46%
    19:00 +29°C° 0 mm 3 mps 761 mmHg 52%
    20:00 +28°C° 0 mm 3 mps 761 mmHg 54%
    21:00 +27°C° 0 mm 2 mps 761 mmHg 56%
    22:00 +27°C° 0 mm 2 mps 761 mmHg 58%
    23:00 +27°C° 0 mm 2 mps 761 mmHg 58%

    Tomorrow, 24 September, Sunday

    Time Temperature Precipitation Wind Pressure Humidity
    00:00 +27°C° 0 mm 2 mps 761 mmHg 57%
    01:00 +26°C° 0 mm 2 mps 761 mmHg 57%
    02:00 +26°C° 0 mm 2 mps 761 mmHg 60%
    03:00 +26°C° 0 mm 2 mps 761 mmHg 62%
    04:00 +25°C° 0 mm 3 mps 761 mmHg 65%
    05:00 +25°C° 0 mm 2 mps 761 mmHg 68%
    06:00 +25°C° 0 mm 2 mps 761 mmHg 72%
    07:00 +24°C° 0 mm 2 mps 761 mmHg 76%
    08:00 +26°C° 0 mm 2 mps 762 mmHg 71%
    09:00 +27°C° 0 mm 2 mps 762 mmHg 67%
    10:00 +28°C° 0 mm 2 mps 762 mmHg 63%
    11:00 +29°C° 0 mm 3 mps 762 mmHg 60%
    12:00 +29°C° 0 mm 4 mps 762 mmHg 56%
    13:00 +30°C° 0 mm 5 mps 762 mmHg 53%
    14:00 +30°C° 0 mm 4 mps 762 mmHg 54%
    15:00 +29°C° 0 mm 4 mps 762 mmHg 54%
    16:00 +29°C° 0 mm 4 mps 762 mmHg 54%
    17:00 +28°C° 0 mm 4 mps 762 mmHg 59%
    18:00 +26°C° 0 mm 3 mps 762 mmHg 64%
    19:00 +25°C° 0 mm 3 mps 762 mmHg 69%
    20:00 +24°C° 0 mm 2 mps 763 mmHg 72%
    21:00 +24°C° 0 mm 2 mps 763 mmHg 75%
    22:00 +23°C° 0 mm 1 mps 764 mmHg 78%
    23:00 +23°C° 0 mm 1 mps 764 mmHg 80%

    Day after tomorrow, 25 September, Monday

    Time Temperature Precipitation Wind Pressure Humidity
    00:00 +22°C° 0 mm 1 mps 763 mmHg 82%
    01:00 +22°C° 0 mm 1 mps 763 mmHg 83%
    02:00 +22°C° 0 mm 1 mps 763 mmHg 83%
    03:00 +21°C° 0 mm 1 mps 763 mmHg 83%
    04:00 +21°C° 0 mm 1 mps 762 mmHg 83%
    05:00 +21°C° 0 mm 1 mps 762 mmHg 80%
    06:00 +21°C° 0 mm 1 mps 762 mmHg 77%
    07:00 +21°C° 0 mm 1 mps 762 mmHg 74%
    08:00 +24°C° 0 mm 1 mps 762 mmHg 62%
    09:00 +26°C° 0 mm 1 mps 763 mmHg 51%
    10:00 +28°C° 0 mm 1 mps 763 mmHg 39%
    11:00 +29°C° 0 mm 1 mps 763 mmHg 35%
    12:00 +30°C° 0 mm 2 mps 762 mmHg 32%
    13:00 +31°C° 0 mm 2 mps 762 mmHg 29%
    14:00 +31°C° 0 mm 3 mps 762 mmHg 31%
    15:00 +31°C° 0 mm 3 mps 761 mmHg 34%
    16:00 +31°C° 0 mm 3 mps 761 mmHg 36%
    17:00 +29°C° 0 mm 3 mps 761 mmHg 44%
    18:00 +27°C° 0 mm 3 mps 762 mmHg 52%
    19:00 +25°C° 0 mm 2 mps 762 mmHg 59%
    20:00 +25°C° 0 mm 2 mps 762 mmHg 63%
    21:00 +24°C° 0 mm 2 mps 762 mmHg 66%
    22:00 +23°C° 0 mm 1 mps 763 mmHg 69%
    23:00 +23°C° 0 mm 1 mps 763 mmHg 68%

    26 September, Tuesday

    Time Temperature Precipitation Wind Pressure Humidity
    00:00 +23°C° 0 mm 1 mps 762 mmHg 67%
    01:00 +23°C° 0 mm 1 mps 762 mmHg 67%
    02:00 +22°C° 0 mm 1 mps 762 mmHg 66%
    03:00 +22°C° 0 mm 1 mps 762 mmHg 65%
    04:00 +22°C° 0 mm 1 mps 761 mmHg 65%
    05:00 +22°C° 0 mm 1 mps 762 mmHg 64%
    06:00 +22°C° 0 mm 1 mps 762 mmHg 62%
    07:00 +22°C° 0 mm 1 mps 762 mmHg 61%
    08:00 +25°C° 0 mm 1 mps 762 mmHg 53%
    09:00 +27°C° 0 mm 1 mps 762 mmHg 45%
    10:00 +29°C° 0 mm 1 mps 762 mmHg 37%
    11:00 +30°C° 0 mm 2 mps 762 mmHg 34%
    12:00 +31°C° 0 mm 2 mps 762 mmHg 30%
    13:00 +33°C° 0 mm 3 mps 761 mmHg 27%
    14:00 +33°C° 0 mm 3 mps 761 mmHg 28%
    15:00 +33°C° 0 mm 3 mps 761 mmHg 29%
    16:00 +33°C° 0 mm 4 mps 761 mmHg 30%
    17:00 +30°C° 0 mm 4 mps 761 mmHg 36%
    18:00 +28°C° 0 mm 3 mps 761 mmHg 42%
    19:00 +26°C° 0 mm 3 mps 761 mmHg 48%
    20:00 +26°C° 0 mm 2 mps 762 mmHg 51%
    21:00 +25°C° 0 mm 2 mps 762 mmHg 54%
    22:00 +24°C° 0 mm 2 mps 762 mmHg 57%
    23:00 +24°C° 0 mm 2 mps 762 mmHg 59%

    27 September, Wednesday

    Time Temperature Precipitation Wind Pressure Humidity
    00:00 +24°C° 0 mm 2 mps 762 mmHg 60%
    01:00 +23°C° 0 mm 1 mps 762 mmHg 61%
    02:00 +23°C° 0 mm 1 mps 762 mmHg 61%
    03:00 +23°C° 0 mm 1 mps 762 mmHg 60%
    04:00 +23°C° 0 mm 1 mps 761 mmHg 60%
    05:00 +23°C° 0 mm 1 mps 762 mmHg 59%
    06:00 +23°C° 0 mm 1 mps 762 mmHg 58%
    07:00 +23°C° 0 mm 1 mps 762 mmHg 58%
    08:00 +25°C° 0 mm 1 mps 762 mmHg 51%
    09:00 +27°C° 0 mm 1 mps 762 mmHg 45%
    10:00 +30°C° 0 mm 2 mps 763 mmHg 39%
    11:00 +30°C° 0 mm 2 mps 762 mmHg 38%
    12:00 +31°C° 0 mm 3 mps 762 mmHg 38%
    13:00 +33°C° 0 mm 4 mps 762 mmHg 37%
    14:00 +32°C° 0 mm 4 mps 762 mmHg 40%
    15:00 +32°C° 0 mm 4 mps 762 mmHg 43%
    16:00 +30°C° 0 mm 4 mps 762 mmHg 47%
    17:00 +28°C° 0 mm 4 mps 762 mmHg 54%
    18:00 +27°C° 0 mm 3 mps 762 mmHg 61%
    19:00 +25°C° 0 mm 2 mps 763 mmHg 68%
    20:00 +24°C° 0 mm 2 mps 763 mmHg 73%
    21:00 +24°C° 0 mm 2 mps 764 mmHg 77%
    22:00 +23°C° 0 mm 1 mps 764 mmHg 81%
    23:00 +23°C° 0 mm 1 mps 764 mmHg 83%

    28 September, Thursday

    Time Temperature Precipitation Wind Pressure Humidity
    00:00 +22°C° 0 mm 1 mps 764 mmHg 85%
    01:00 +22°C° 0 mm 1 mps 764 mmHg 87%
    02:00 +22°C° 0.1 mm 1 mps 764 mmHg 88%
    03:00 +22°C° 0.1 mm 1 mps 764 mmHg 88%
    04:00 +20°C° 0.1 mm 2 mps 764 mmHg 89%
    05:00 +20°C° 0.1 mm 2 mps 764 mmHg 88%
    06:00 +20°C° 0.1 mm 2 mps 765 mmHg 87%
    07:00 +20°C° 0.1 mm 2 mps 765 mmHg 87%
    08:00 +23°C° 0 mm 2 mps 765 mmHg 77%
    09:00 +24°C° 0 mm 3 mps 765 mmHg 68%
    10:00 +25°C° 0 mm 3 mps 766 mmHg 59%
    11:00 +26°C° 0 mm 3 mps 765 mmHg 54%
    12:00 +27°C° 0 mm 3 mps 765 mmHg 50%
    13:00 +28°C° 0 mm 4 mps 765 mmHg 45%
    14:00 +27°C° 0 mm 4 mps 765 mmHg 46%
    15:00 +27°C° 0 mm 4 mps 764 mmHg 47%
    16:00 +27°C° 0 mm 4 mps 764 mmHg 48%
    17:00 +26°C° 0 mm 3 mps 765 mmHg 54%
    18:00 +24°C° 0 mm 2 mps 765 mmHg 61%
    19:00 +23°C° 0 mm 2 mps 765 mmHg 67%
    20:00 +23°C° 0 mm 1 mps 766 mmHg 70%
    21:00 +22°C° 0 mm 1 mps 766 mmHg 73%
    22:00 +22°C° 0 mm 1 mps 766 mmHg 76%
    23:00 +21°C° 0 mm 1 mps 766 mmHg 78%
    Show more